VHJLE YJST-YCVA

Flight info

Callsign VHJLE
Flight time 0h 34m
Altitude 5000
Route DCT
Aircraft C172/L-SFG/C

Departure

Time 2026-05-04 12:19
Airport Hubert Wilkins Airstrip (YJST)

Arrival

Time 2026-05-04 12:53
Airport Clare Valley Aerodrome (YCVA)
Time Latitude Longitude Altitude Speed Heading
2026-05-04 12:17 -33.18663 138.61437 1566 ft 0 kts 167°
2026-05-04 12:19 -33.18674 138.61442 1586 ft 9 kts 171°
2026-05-04 12:19 -33.18905 138.61480 1649 ft 65 kts 160°
2026-05-04 12:19 -33.19428 138.61796 1798 ft 91 kts 149°
2026-05-04 12:20 -33.20061 138.62153 1870 ft 106 kts 165°
2026-05-04 12:20 -33.20771 138.61881 1925 ft 113 kts 205°
2026-05-04 12:20 -33.21575 138.61657 1839 ft 124 kts 198°
2026-05-04 12:20 -33.21976 138.61321 1870 ft 112 kts 222°
2026-05-04 12:21 -33.22157 138.61090 1789 ft 113 kts 229°
2026-05-04 12:21 -33.22724 138.60514 1821 ft 103 kts 216°
2026-05-04 12:21 -33.23314 138.60011 1766 ft 106 kts 218°
2026-05-04 12:22 -33.23352 138.59978 1762 ft 106 kts 218°
2026-05-04 12:22 -33.23624 138.59740 1730 ft 105 kts 216°
2026-05-04 12:23 -33.23777 138.59629 1716 ft 106 kts 211°
2026-05-04 12:23 -33.24464 138.59327 1651 ft 106 kts 193°
2026-05-04 12:23 -33.25138 138.59143 1727 ft 95 kts 205°
2026-05-04 12:23 -33.25307 138.59044 1735 ft 94 kts 210°
2026-05-04 12:24 -33.25441 138.58960 1748 ft 92 kts 210°
2026-05-04 12:24 -33.25997 138.58610 1818 ft 91 kts 205°
2026-05-04 12:24 -33.26620 138.58582 1974 ft 86 kts 182°
2026-05-04 12:24 -33.27172 138.58399 2146 ft 83 kts 212°
2026-05-04 12:25 -33.27658 138.57975 2207 ft 90 kts 221°
2026-05-04 12:25 -33.28194 138.57564 2176 ft 101 kts 191°
2026-05-04 12:25 -33.28905 138.57776 2013 ft 110 kts 164°
2026-05-04 12:25 -33.29677 138.58053 1718 ft 115 kts 165°
2026-05-04 12:26 -33.30419 138.58276 1598 ft 109 kts 168°
2026-05-04 12:26 -33.31145 138.58451 1505 ft 103 kts 171°
2026-05-04 12:26 -33.31833 138.58582 1456 ft 97 kts 174°
2026-05-04 12:26 -33.32488 138.58660 1417 ft 93 kts 178°
2026-05-04 12:27 -33.33129 138.58698 1368 ft 93 kts 177°
2026-05-04 12:27 -33.33760 138.58774 1352 ft 88 kts 178°
2026-05-04 12:27 -33.34368 138.58826 1323 ft 89 kts 175°
2026-05-04 12:27 -33.34978 138.58910 1303 ft 87 kts 176°
2026-05-04 12:28 -33.35585 138.58970 1276 ft 88 kts 176°
2026-05-04 12:28 -33.36147 138.58893 1286 ft 78 kts 225°
2026-05-04 12:28 -33.36088 138.58423 1376 ft 62 kts 334°
2026-05-04 12:28 -33.35705 138.58243 1465 ft 58 kts 339°
2026-05-04 12:29 -33.35291 138.58238 1490 ft 70 kts 25°
2026-05-04 12:29 -33.35107 138.58771 1411 ft 85 kts 99°
2026-05-04 12:29 -33.34872 138.59344 1445 ft 75 kts 52°
2026-05-04 12:29 -33.34638 138.59894 1459 ft 79 kts 73°
2026-05-04 12:30 -33.34493 138.60565 1434 ft 82 kts 73°
2026-05-04 12:30 -33.34361 138.61193 1518 ft 74 kts 78°
2026-05-04 12:30 -33.34414 138.61670 1629 ft 50 kts 106°
2026-05-04 12:30 -33.34319 138.62041 1741 ft 52 kts 31°
2026-05-04 12:31 -33.33971 138.62039 1763 ft 63 kts 278°
2026-05-04 12:31 -33.34109 138.62101 1744 ft 35 kts 97°
2026-05-04 12:31 -33.34183 138.62448 1804 ft 61 kts 105°
2026-05-04 12:31 -33.34297 138.63130 1786 ft 93 kts 99°
2026-05-04 12:32 -33.34443 138.63812 1803 ft 75 kts 107°
2026-05-04 12:32 -33.34701 138.64672 1779 ft 40 kts 113°
2026-05-04 12:32 -33.34710 138.65124 1805 ft 82 kts 64°
2026-05-04 12:33 -33.34225 138.65068 1966 ft 81 kts 306°
2026-05-04 12:33 -33.34142 138.64375 1975 ft 95 kts 255°
2026-05-04 12:33 -33.34379 138.63675 1793 ft 72 kts 259°
2026-05-04 12:33 -33.34289 138.63185 1813 ft 60 kts 288°
2026-05-04 12:34 -33.34172 138.62709 1877 ft 59 kts 280°
2026-05-04 12:34 -33.34083 138.62246 1747 ft 53 kts 283°
2026-05-04 12:34 -33.34054 138.61882 1701 ft 28 kts 278°
2026-05-04 12:34 -33.34063 138.61687 1644 ft 31 kts 246°
2026-05-04 12:35 -33.34258 138.61643 1646 ft 17 kts 277°
2026-05-04 12:35 -33.34270 138.61576 1566 ft 9 kts 232°
2026-05-04 12:35 -33.34306 138.61559 1538 ft 6 kts 227°
2026-05-04 12:35 -33.34319 138.61581 1543 ft 7 kts 231°
2026-05-04 12:36 -33.34290 138.61559 1605 ft 9 kts 233°
2026-05-04 12:36 -33.34327 138.61510 1606 ft 9 kts 226°
2026-05-04 12:36 -33.34373 138.61530 1550 ft 6 kts 230°
2026-05-04 12:36 -33.34373 138.61524 1435 ft 0 kts 247°
2026-05-04 12:40 -33.34373 138.61522 1443 ft 2 kts 257°
2026-05-04 12:40 -33.34411 138.61250 1558 ft 84 kts 231°
2026-05-04 12:40 -33.34645 138.60381 1606 ft 133 kts 246°
2026-05-04 12:40 -33.34985 138.59233 1469 ft 159 kts 233°
2026-05-04 12:41 -33.35973 138.58747 1371 ft 163 kts 173°
2026-05-04 12:41 -33.37094 138.58640 1319 ft 159 kts 184°
2026-05-04 12:41 -33.38138 138.58450 1444 ft 147 kts 176°
2026-05-04 12:41 -33.39107 138.58465 1676 ft 129 kts 182°
2026-05-04 12:42 -33.40009 138.58454 1570 ft 123 kts 184°
2026-05-04 12:42 -33.40859 138.58316 1330 ft 130 kts 178°
2026-05-04 12:42 -33.41720 138.58403 1218 ft 117 kts 175°
2026-05-04 12:42 -33.42466 138.58495 1218 ft 98 kts 176°
2026-05-04 12:43 -33.43092 138.58564 1211 ft 84 kts 178°
2026-05-04 12:43 -33.43450 138.58598 1202 ft 70 kts 180°
2026-05-04 12:43 -33.44038 138.58642 1185 ft 82 kts 178°
2026-05-04 12:43 -33.44481 138.58742 1165 ft 109 kts 172°
2026-05-04 12:44 -33.45297 138.58790 1284 ft 125 kts 181°
2026-05-04 12:44 -33.46153 138.58772 1639 ft 117 kts 185°
2026-05-04 12:44 -33.47314 138.58771 1767 ft 136 kts 173°
2026-05-04 12:44 -33.47932 138.58935 1889 ft 135 kts 169°
2026-05-04 12:45 -33.48849 138.59253 2031 ft 134 kts 167°
2026-05-04 12:45 -33.49785 138.59523 2028 ft 140 kts 169°
2026-05-04 12:45 -33.50583 138.60188 1692 ft 150 kts 107°
2026-05-04 12:45 -33.50215 138.61134 1670 ft 119 kts 32°
2026-05-04 12:46 -33.49561 138.61588 1534 ft 108 kts 28°
2026-05-04 12:46 -33.49373 138.62238 1483 ft 98 kts 136°
2026-05-04 12:46 -33.50019 138.62405 1490 ft 97 kts 177°
2026-05-04 12:46 -33.50699 138.62521 1534 ft 97 kts 173°
2026-05-04 12:47 -33.51356 138.62586 1629 ft 94 kts 195°
2026-05-04 12:47 -33.51890 138.62094 1548 ft 104 kts 224°
2026-05-04 12:47 -33.52411 138.61525 1630 ft 99 kts 223°
2026-05-04 12:47 -33.53003 138.61073 1647 ft 103 kts 206°
2026-05-04 12:48 -33.53704 138.60849 1670 ft 104 kts 192°
2026-05-04 12:48 -33.54413 138.60712 1702 ft 103 kts 192°
2026-05-04 12:48 -33.55126 138.60564 1691 ft 105 kts 191°
2026-05-04 12:48 -33.55851 138.60426 1689 ft 106 kts 191°
2026-05-04 12:49 -33.56581 138.60299 1701 ft 107 kts 190°
2026-05-04 12:49 -33.57332 138.60177 1607 ft 113 kts 189°
2026-05-04 12:49 -33.58102 138.60069 1628 ft 108 kts 188°
2026-05-04 12:49 -33.58833 138.59986 1656 ft 105 kts 187°
2026-05-04 12:50 -33.59550 138.59899 1692 ft 103 kts 193°
2026-05-04 12:50 -33.60215 138.59485 1532 ft 115 kts 213°
2026-05-04 12:50 -33.60868 138.58959 1551 ft 107 kts 217°
2026-05-04 12:50 -33.61496 138.58495 1485 ft 112 kts 199°
2026-05-04 12:51 -33.62284 138.58556 1371 ft 118 kts 161°
2026-05-04 12:51 -33.63043 138.58674 1392 ft 110 kts 182°
2026-05-04 12:51 -33.63817 138.58666 1333 ft 113 kts 180°
2026-05-04 12:51 -33.64613 138.58717 1273 ft 114 kts 176°
2026-05-04 12:52 -33.65385 138.58844 1296 ft 110 kts 172°
2026-05-04 12:52 -33.66118 138.58879 1322 ft 106 kts 197°
2026-05-04 12:52 -33.66860 138.58829 1296 ft 108 kts 180°
2026-05-04 12:52 -33.67624 138.58710 1235 ft 112 kts 188°
2026-05-04 12:53 -33.68386 138.58616 1251 ft 108 kts 184°
2026-05-04 12:53 -33.69050 138.58678 1227 ft 82 kts 178°
2026-05-04 12:53 -33.69524 138.58703 1205 ft 58 kts 194°
2026-05-04 12:53 -33.69835 138.58654 1194 ft 26 kts 202°
2026-05-04 12:54 -33.70135 138.58624 1158 ft 79 kts 178°
2026-05-04 12:54 -33.70757 138.58656 1221 ft 78 kts 176°
2026-05-04 12:54 -33.71021 138.58562 1206 ft 16 kts 261°
2026-05-04 12:54 -33.71052 138.58479 1145 ft 18 kts
2026-05-04 12:55 -33.71027 138.58418 1142 ft 7 kts
2026-05-04 12:55 -33.71039 138.58401 1120 ft 0 kts 13°
2026-05-04 12:55 -33.71034 138.58398 1118 ft 0 kts 40°
2026-05-04 12:56 -33.71033 138.58398 1118 ft 0 kts 47°
2026-05-04 12:56 -33.71035 138.58389 1136 ft 4 kts 43°
2026-05-04 12:56 -33.70890 138.58453 1291 ft 37 kts 355°
2026-05-04 12:56 -33.70607 138.58527 1497 ft 43 kts 348°
2026-05-04 12:57 -33.70719 138.58344 1353 ft 74 kts 163°
2026-05-04 12:57 -33.71338 138.58470 1262 ft 94 kts 168°
2026-05-04 12:57 -33.71987 138.58627 1304 ft 88 kts 167°
2026-05-04 12:57 -33.72144 138.58374 1262 ft 45 kts 23°
2026-05-04 12:58 -33.71958 138.58520 1227 ft 20 kts 11°
2026-05-04 12:58 -33.71708 138.58504 1192 ft 59 kts 354°
2026-05-04 12:58 -33.71076 138.58491 1169 ft 122 kts 352°
2026-05-04 12:58 -33.70197 138.58450 1468 ft 113 kts 353°
2026-05-04 12:59 -33.69503 138.58573 1314 ft 78 kts 68°
2026-05-04 12:59 -33.69730 138.58712 1236 ft 52 kts 212°
2026-05-04 12:59 -33.70188 138.58561 1180 ft 83 kts 191°
2026-05-04 12:59 -33.70769 138.58488 1155 ft 83 kts 184°
2026-05-04 13:00 -33.71326 138.58497 1232 ft 63 kts 181°
2026-05-04 13:00 -33.71549 138.58485 1286 ft 16 kts 346°
2026-05-04 13:00 -33.71288 138.58481 1190 ft 38 kts 354°
2026-05-04 13:00 -33.71048 138.58486 1149 ft 31 kts
2026-05-04 13:01 -33.70891 138.58494 1146 ft 21 kts 360°
2026-05-04 13:01 -33.70815 138.58486 1136 ft 3 kts 306°
2026-05-04 13:01 -33.70855 138.58479 1145 ft 16 kts 190°
2026-05-04 13:01 -33.71036 138.58487 1125 ft 21 kts 178°
2026-05-04 13:02 -33.71070 138.58493 1126 ft 0 kts 180°
2026-05-04 13:02 -33.71031 138.58493 1130 ft 13 kts 340°
2026-05-04 13:02 -33.71009 138.58488 1117 ft 0 kts 338°
2026-05-04 13:15 -33.71007 138.58488 1128 ft 1 kts 344°
2026-05-04 13:16 -33.70935 138.58480 1168 ft 18 kts 337°
2026-05-04 13:16 -33.70798 138.58481 1241 ft 12 kts 227°
2026-05-04 13:16 -33.71132 138.58506 1199 ft 71 kts 166°
2026-05-04 13:16 -33.71632 138.58643 1400 ft 82 kts 164°
2026-05-04 13:17 -33.71997 138.59142 1424 ft 101 kts 72°
2026-05-04 13:17 -33.71439 138.59047 1297 ft 109 kts 307°
2026-05-04 13:17 -33.70824 138.58288 1178 ft 138 kts 311°
2026-05-04 13:17 -33.70077 138.57575 1414 ft 128 kts 324°
2026-05-04 13:18 -33.70235 138.56987 1314 ft 104 kts 161°
2026-05-04 13:18 -33.70621 138.57750 1175 ft 119 kts 113°
2026-05-04 13:18 -33.70921 138.58670 1268 ft 113 kts 110°
2026-05-04 13:18 -33.71105 138.59594 1350 ft 102 kts 115°
2026-05-04 13:19 -33.71466 138.59628 1430 ft 82 kts 284°
2026-05-04 13:19 -33.71154 138.58808 1164 ft 134 kts 299°
2026-05-04 13:19 -33.70742 138.57934 1304 ft 39 kts 308°
2026-05-04 13:19 -33.70622 138.57883 1107 ft 0 kts 150°
2026-05-04 13:20 -33.70642 138.57885 1216 ft 12 kts 100°
2026-05-04 13:20 -33.70859 138.58255 1224 ft 77 kts 109°
2026-05-04 13:20 -33.71043 138.58515 1242 ft 10 kts 165°
2026-05-04 13:20 -33.71061 138.58523 1196 ft 8 kts 292°
2026-05-04 13:21 -33.71000 138.58500 1175 ft 17 kts 333°
2026-05-04 13:21 -33.70983 138.58504 1117 ft 0 kts 229°
2026-05-04 13:21 -33.71097 138.58489 1194 ft 42 kts 177°
2026-05-04 13:22 -33.71512 138.58430 1415 ft 80 kts 193°
2026-05-04 13:22 -33.71516 138.58621 1275 ft 92 kts 354°
2026-05-04 13:22 -33.70770 138.58391 1272 ft 102 kts 330°
2026-05-04 13:22 -33.70118 138.58128 1382 ft 101 kts 351°
2026-05-04 13:23 -33.69894 138.58693 1325 ft 97 kts 141°
2026-05-04 13:23 -33.70410 138.58640 1589 ft 52 kts 204°
2026-05-04 13:23 -33.70704 138.58513 1654 ft 41 kts 193°
2026-05-04 13:23 -33.71016 138.58498 1156 ft 41 kts 182°
2026-05-04 13:24 -33.71076 138.58501 1120 ft 0 kts 239°